TimeHST,TemperatureF,Dew PointF,Humidity,Sea Level PressureIn,VisibilityMPH,Wind Direction,Wind SpeedMPH,Gust SpeedMPH,PrecipitationIn,Events,Conditions,WindDirDegrees,DateUTC
12:14 AM,69.8,60.8,73,30.13,10.0,NE,13.8,19.6,N/A,,Mostly Cloudy,40,2013-01-22 10:14:00
12:54 AM,71.1,61.0,70,30.13,10.0,NE,13.8,21.9,N/A,,Mostly Cloudy,40,2013-01-22 10:54:00
1:01 AM,71.6,60.8,69,30.12,10.0,NE,16.1,23.0,N/A,,Mostly Cloudy,50,2013-01-22 11:01:00
1:54 AM,71.1,60.1,68,30.13,10.0,NNE,11.5,-,N/A,,Mostly Cloudy,30,2013-01-22 11:54:00
2:54 AM,71.1,60.1,68,30.12,10.0,NE,10.4,17.3,N/A,,Mostly Cloudy,40,2013-01-22 12:54:00
3:54 AM,71.1,59.0,66,30.12,10.0,NE,8.1,-,N/A,,Mostly Cloudy,40,2013-01-22 13:54:00
4:54 AM,71.1,60.1,68,30.12,10.0,NE,6.9,17.3,N/A,,Mostly Cloudy,40,2013-01-22 14:54:00
5:54 AM,71.1,59.0,66,30.13,10.0,NNE,9.2,-,N/A,,Scattered Clouds,30,2013-01-22 15:54:00
6:54 AM,70.0,59.0,68,30.15,10.0,NE,8.1,-,N/A,,Clear,40,2013-01-22 16:54:00
7:54 AM,72.0,60.1,66,30.15,10.0,NE,8.1,-,N/A,,Overcast,40,2013-01-22 17:54:00
8:50 AM,71.6,64.4,78,30.15,10.0,NNE,8.1,16.1,N/A,,Overcast,30,2013-01-22 18:50:00
8:54 AM,71.1,64.9,81,30.16,10.0,North,11.5,18.4,N/A,,Overcast,10,2013-01-22 18:54:00
9:35 AM,73.4,62.6,69,30.16,10.0,NE,13.8,21.9,N/A,,Overcast,40,2013-01-22 19:35:00
9:54 AM,75.0,63.0,66,30.17,10.0,NE,13.8,23.0,N/A,,Mostly Cloudy,50,2013-01-22 19:54:00
10:54 AM,75.9,63.0,64,30.16,10.0,NE,16.1,24.2,0.00,,Mostly Cloudy,40,2013-01-22 20:54:00
11:54 AM,75.9,62.1,62,30.14,10.0,NE,15.0,27.6,N/A,,Scattered Clouds,40,2013-01-22 21:54:00
12:54 PM,75.9,61.0,60,30.10,10.0,NNE,15.0,25.3,N/A,,Partly Cloudy,30,2013-01-22 22:54:00
1:54 PM,75.9,61.0,60,30.08,10.0,NNE,13.8,25.3,N/A,,Partly Cloudy,30,2013-01-22 23:54:00
2:54 PM,75.0,60.1,60,30.06,10.0,NE,13.8,24.2,N/A,,Clear,40,2013-01-23 00:54:00
3:54 PM,75.0,60.1,60,30.06,10.0,NNE,15.0,27.6,N/A,,Partly Cloudy,30,2013-01-23 01:54:00
4:54 PM,73.0,60.1,64,30.08,10.0,NE,17.3,25.3,N/A,,Clear,50,2013-01-23 02:54:00
5:54 PM,71.1,59.0,66,30.09,10.0,ENE,13.8,20.7,N/A,,Partly Cloudy,60,2013-01-23 03:54:00
6:54 PM,70.0,57.9,65,30.09,10.0,NE,13.8,23.0,N/A,,Clear,50,2013-01-23 04:54:00
7:54 PM,71.1,61.0,70,30.10,10.0,NE,11.5,21.9,N/A,,Scattered Clouds,40,2013-01-23 05:54:00
8:54 PM,70.0,60.1,71,30.10,10.0,NE,11.5,21.9,N/A,,Clear,40,2013-01-23 06:54:00
9:54 PM,70.0,60.1,71,30.09,10.0,NE,13.8,26.5,N/A,,Partly Cloudy,40,2013-01-23 07:54:00
10:54 PM,70.0,57.0,63,30.09,10.0,NE,13.8,26.5,N/A,,Clear,50,2013-01-23 08:54:00
11:54 PM,70.0,60.1,71,30.07,10.0,NE,17.3,25.3,N/A,,Mostly Cloudy,50,2013-01-23 09:54:00